Time,TemperatureF,DewpointF,PressureIn,WindDirection,WindDirectionDegrees,WindSpeedMPH,WindSpeedGustMPH,Humidity,HourlyPrecipIn,Conditions,Clouds,dailyrainin,SoftwareType,DateUTC
2013-01-03 00:03:00,7.0,0.0,30.08,West,264,0.0,5.0,71,0.00,,,0.00,,2013-01-03 05:03:00,
2013-01-03 00:12:00,6.0,-1.0,30.08,WNW,284,0.0,5.0,71,0.00,,,0.00,,2013-01-03 05:12:00,
2013-01-03 00:23:00,6.0,-1.0,30.08,WNW,284,0.0,5.0,71,0.00,,,0.00,,2013-01-03 05:23:00,
2013-01-03 00:33:00,6.0,-2.0,30.08,NW,313,3.0,8.0,70,0.00,,,0.00,,2013-01-03 05:33:00,
2013-01-03 00:42:00,6.0,-2.0,30.08,NW,313,3.0,8.0,70,0.00,,,0.00,,2013-01-03 05:42:00,
2013-01-03 00:53:00,6.0,-2.0,30.08,NW,315,3.0,8.0,70,0.00,,,0.00,,2013-01-03 05:53:00,
2013-01-03 01:02:00,6.0,-2.0,30.08,WNW,296,0.0,8.0,70,0.00,,,0.00,,2013-01-03 06:02:00,
2013-01-03 01:12:00,6.0,-2.0,30.08,WNW,296,0.0,8.0,70,0.00,,,0.00,,2013-01-03 06:12:00,
2013-01-03 01:22:00,5.0,-3.0,30.08,NW,319,0.0,9.0,69,0.00,,,0.00,,2013-01-03 06:22:00,
2013-01-03 01:33:00,5.0,-3.0,30.09,WNW,290,8.0,8.0,69,0.00,,,0.00,,2013-01-03 06:33:00,
2013-01-03 01:42:00,5.0,-3.0,30.09,WNW,290,8.0,8.0,69,0.00,,,0.00,,2013-01-03 06:42:00,
2013-01-03 01:53:00,4.0,-4.0,30.09,West,259,0.0,8.0,69,0.00,,,0.00,,2013-01-03 06:53:00,
2013-01-03 02:02:00,4.0,-4.0,30.09,NW,315,3.0,8.0,69,0.00,,,0.00,,2013-01-03 07:02:00,
2013-01-03 02:12:00,4.0,-4.0,30.09,NW,315,3.0,8.0,69,0.00,,,0.00,,2013-01-03 07:12:00,
2013-01-03 02:22:00,4.0,-4.0,30.09,West,266,0.0,8.0,69,0.00,,,0.00,,2013-01-03 07:22:00,
2013-01-03 02:33:00,3.0,-5.0,30.09,WNW,290,0.0,6.0,69,0.00,,,0.00,,2013-01-03 07:33:00,
2013-01-03 02:42:00,3.0,-5.0,30.09,WNW,290,0.0,6.0,69,0.00,,,0.00,,2013-01-03 07:42:00,
2013-01-03 02:53:00,3.0,-5.0,30.10,West,275,1.0,6.0,68,0.00,,,0.00,,2013-01-03 07:53:00,
2013-01-03 03:02:00,3.0,-5.0,30.10,NW,306,0.0,6.0,68,0.00,,,0.00,,2013-01-03 08:02:00,
2013-01-03 03:12:00,3.0,-5.0,30.10,NW,306,0.0,6.0,68,0.00,,,0.00,,2013-01-03 08:12:00,
2013-01-03 03:22:00,2.0,-6.0,30.09,West,279,0.0,6.0,68,0.00,,,0.00,,2013-01-03 08:22:00,
2013-01-03 03:33:00,2.0,-6.0,30.09,West,271,0.0,3.0,68,0.00,,,0.00,,2013-01-03 08:33:00,
2013-01-03 03:43:00,2.0,-6.0,30.09,West,271,0.0,3.0,68,0.00,,,0.00,,2013-01-03 08:43:00,
2013-01-03 03:53:00,2.0,-6.0,30.08,NW,311,1.0,5.0,68,0.00,,,0.00,,2013-01-03 08:53:00,
2013-01-03 04:02:00,2.0,-6.0,30.08,NW,321,1.0,6.0,68,0.00,,,0.00,,2013-01-03 09:02:00,
2013-01-03 04:12:00,2.0,-6.0,30.08,NW,321,1.0,6.0,68,0.00,,,0.00,,2013-01-03 09:12:00,
2013-01-03 04:22:00,2.0,-6.0,30.08,WSW,246,0.0,6.0,68,0.00,,,0.00,,2013-01-03 09:22:00,
2013-01-03 04:33:00,1.0,-7.0,30.08,WNW,298,0.0,4.0,68,0.00,,,0.00,,2013-01-03 09:33:00,
2013-01-03 04:43:00,1.0,-7.0,30.08,WNW,298,0.0,4.0,68,0.00,,,0.00,,2013-01-03 09:43:00,
2013-01-03 04:53:00,1.0,-6.0,30.09,WSW,257,1.0,4.0,70,0.00,,,0.00,,2013-01-03 09:53:00,
2013-01-03 05:02:00,0.0,-7.0,30.08,West,279,1.0,4.0,70,0.00,,,0.00,,2013-01-03 10:02:00,
2013-01-03 05:12:00,0.0,-7.0,30.08,West,279,1.0,4.0,70,0.00,,,0.00,,2013-01-03 10:12:00,
2013-01-03 05:23:00,0.0,-7.0,30.08,West,278,1.0,5.0,71,0.00,,,0.00,,2013-01-03 10:23:00,
2013-01-03 05:33:00,0.0,-7.0,30.08,NW,325,0.0,4.0,71,0.00,,,0.00,,2013-01-03 10:33:00,
2013-01-03 05:43:00,0.0,-7.0,30.08,NW,325,0.0,4.0,71,0.00,,,0.00,,2013-01-03 10:43:00,
2013-01-03 05:53:00,0.0,-7.0,30.08,WNW,290,1.0,5.0,72,0.00,,,0.00,,2013-01-03 10:53:00,
2013-01-03 06:02:00,-1.0,-8.0,30.08,WNW,303,0.0,5.0,72,0.00,,,0.00,,2013-01-03 11:02:00,
2013-01-03 06:12:00,-1.0,-8.0,30.08,WNW,303,0.0,5.0,72,0.00,,,0.00,,2013-01-03 11:12:00,
2013-01-03 06:23:00,-1.0,-8.0,30.08,NW,306,0.0,5.0,72,0.00,,,0.00,,2013-01-03 11:23:00,
2013-01-03 06:33:00,-1.0,-8.0,30.07,NW,307,1.0,4.0,72,0.00,,,0.00,,2013-01-03 11:33:00,
2013-01-03 06:43:00,-1.0,-8.0,30.07,NW,307,1.0,4.0,72,0.00,,,0.00,,2013-01-03 11:43:00,
2013-01-03 06:53:00,-1.0,-8.0,30.09,WNW,296,0.0,4.0,72,0.00,,,0.00,,2013-01-03 11:53:00,
2013-01-03 07:03:00,-1.0,-8.0,30.08,West,266,0.0,4.0,72,0.00,,,0.00,,2013-01-03 12:03:00,
2013-01-03 07:12:00,-1.0,-8.0,30.08,West,266,0.0,4.0,72,0.00,,,0.00,,2013-01-03 12:12:00,
2013-01-03 07:22:00,-1.0,-8.0,30.09,WNW,288,0.0,4.0,72,0.00,,,0.00,,2013-01-03 12:22:00,
2013-01-03 07:33:00,-2.0,-9.0,30.10,WNW,296,1.0,1.0,73,0.00,,,0.00,,2013-01-03 12:33:00,
2013-01-03 07:42:00,-2.0,-9.0,30.10,WNW,296,1.0,1.0,73,0.00,,,0.00,,2013-01-03 12:42:00,
2013-01-03 07:53:00,-2.0,-8.0,30.10,West,261,0.0,3.0,74,0.00,,,0.00,,2013-01-03 12:53:00,
2013-01-03 08:02:00,-2.0,-8.0,30.10,NW,308,0.0,3.0,74,0.00,,,0.00,,2013-01-03 13:02:00,
2013-01-03 08:13:00,-2.0,-8.0,30.10,NW,308,0.0,3.0,74,0.00,,,0.00,,2013-01-03 13:13:00,
2013-01-03 08:22:00,-2.0,-8.0,30.09,NW,322,0.0,3.0,74,0.00,,,0.00,,2013-01-03 13:22:00,
2013-01-03 08:33:00,-2.0,-8.0,30.09,WNW,290,2.0,5.0,74,0.00,,,0.00,,2013-01-03 13:33:00,
2013-01-03 08:42:00,-2.0,-8.0,30.09,WNW,290,2.0,5.0,74,0.00,,,0.00,,2013-01-03 13:42:00,
2013-01-03 08:53:00,0.0,-7.0,30.09,WNW,296,0.0,6.0,72,0.00,,,0.00,,2013-01-03 13:53:00,
2013-01-03 09:03:00,2.0,-6.0,30.09,WNW,294,0.0,6.0,70,0.00,,,0.00,,2013-01-03 14:03:00,
2013-01-03 09:12:00,2.0,-6.0,30.09,WNW,294,0.0,6.0,70,0.00,,,0.00,,2013-01-03 14:12:00,
2013-01-03 09:23:00,3.0,-5.0,30.09,NW,324,0.0,6.0,67,0.00,,,0.00,,2013-01-03 14:23:00,
2013-01-03 09:33:00,6.0,-4.0,30.09,West,280,1.0,3.0,62,0.00,,,0.00,,2013-01-03 14:33:00,
2013-01-03 09:43:00,6.0,-4.0,30.09,West,280,1.0,3.0,62,0.00,,,0.00,,2013-01-03 14:43:00,
2013-01-03 09:53:00,7.0,-4.0,30.10,West,279,0.0,7.0,60,0.00,,,0.00,,2013-01-03 14:53:00,
2013-01-03 10:03:00,8.0,-4.0,30.09,NW,306,1.0,7.0,58,0.00,,,0.00,,2013-01-03 15:03:00,
2013-01-03 10:12:00,10.0,-3.0,30.09,WNW,299,0.0,7.0,56,0.00,,,0.00,,2013-01-03 15:12:00,
2013-01-03 10:23:00,10.0,-3.0,30.09,WNW,299,0.0,7.0,56,0.00,,,0.00,,2013-01-03 15:23:00,
2013-01-03 10:33:00,10.0,-3.0,30.09,NW,315,0.0,5.0,54,0.00,,,0.00,,2013-01-03 15:33:00,
2013-01-03 10:43:00,10.0,-3.0,30.09,NW,315,0.0,5.0,54,0.00,,,0.00,,2013-01-03 15:43:00,
2013-01-03 10:53:00,11.0,-3.0,30.09,West,276,1.0,5.0,53,0.00,,,0.00,,2013-01-03 15:53:00,
2013-01-03 11:03:00,11.0,-3.0,30.09,NNW,333,0.0,5.0,52,0.00,,,0.00,,2013-01-03 16:03:00,
2013-01-03 11:12:00,11.0,-3.0,30.09,NNW,333,0.0,5.0,52,0.00,,,0.00,,2013-01-03 16:12:00,
2013-01-03 11:23:00,12.0,-3.0,30.09,West,259,0.0,5.0,51,0.00,,,0.00,,2013-01-03 16:23:00,
2013-01-03 11:33:00,13.0,-2.0,30.08,NW,325,0.0,4.0,50,0.00,,,0.00,,2013-01-03 16:33:00,
2013-01-03 11:43:00,13.0,-2.0,30.08,NW,325,0.0,4.0,50,0.00,,,0.00,,2013-01-03 16:43:00,
2013-01-03 11:53:00,14.0,-2.0,30.06,NW,324,0.0,5.0,48,0.00,,,0.00,,2013-01-03 16:53:00,
2013-01-03 12:03:00,15.0,-1.0,30.06,WSW,244,1.0,6.0,48,0.00,,,0.00,,2013-01-03 17:03:00,
2013-01-03 12:13:00,15.0,-1.0,30.06,WSW,244,1.0,6.0,48,0.00,,,0.00,,2013-01-03 17:13:00,
2013-01-03 12:23:00,16.0,-2.0,30.05,SW,227,2.0,6.0,44,0.00,,,0.00,,2013-01-03 17:23:00,
2013-01-03 12:33:00,17.0,-1.0,30.04,SSW,209,2.0,5.0,45,0.00,,,0.00,,2013-01-03 17:33:00,
2013-01-03 12:43:00,17.0,-1.0,30.04,SSW,209,2.0,5.0,45,0.00,,,0.00,,2013-01-03 17:43:00,
2013-01-03 12:53:00,19.0,1.0,30.03,WNW,286,1.0,8.0,44,0.00,,,0.00,,2013-01-03 17:53:00,
2013-01-03 13:03:00,19.0,0.0,30.03,East,93,2.0,8.0,42,0.00,,,0.00,,2013-01-03 18:03:00,
2013-01-03 13:13:00,19.0,0.0,30.03,East,93,2.0,8.0,42,0.00,,,0.00,,2013-01-03 18:13:00,
2013-01-03 13:22:00,20.0,1.0,30.02,West,259,0.0,8.0,43,0.00,,,0.00,,2013-01-03 18:22:00,
2013-01-03 13:33:00,20.0,1.0,30.02,SW,219,3.0,4.0,43,0.00,,,0.00,,2013-01-03 18:33:00,
2013-01-03 13:43:00,20.0,1.0,30.02,SW,219,3.0,4.0,43,0.00,,,0.00,,2013-01-03 18:43:00,
2013-01-03 13:53:00,20.0,1.0,30.02,WSW,250,4.0,5.0,42,0.00,,,0.00,,2013-01-03 18:53:00,
2013-01-03 14:03:00,21.0,2.0,30.02,SW,229,0.0,7.0,42,0.00,,,0.00,,2013-01-03 19:03:00,
2013-01-03 14:12:00,21.0,2.0,30.02,SW,229,0.0,7.0,42,0.00,,,0.00,,2013-01-03 19:12:00,
2013-01-03 14:56:00,21.0,3.0,30.01,WSW,238,2.0,6.0,45,0.00,,,0.00,,2013-01-03 19:56:00,
2013-01-03 15:03:00,22.0,5.0,30.01,WNW,290,4.0,7.0,48,0.00,,,0.00,,2013-01-03 20:03:00,
2013-01-03 15:13:00,22.0,5.0,30.01,WNW,290,4.0,7.0,48,0.00,,,0.00,,2013-01-03 20:13:00,
2013-01-03 15:22:00,22.0,7.0,30.00,WSW,246,0.0,9.0,51,0.00,,,0.00,,2013-01-03 20:22:00,
2013-01-03 15:33:00,22.0,7.0,30.00,SW,219,2.0,3.0,52,0.00,,,0.00,,2013-01-03 20:33:00,
2013-01-03 15:42:00,22.0,7.0,30.00,SW,219,2.0,3.0,52,0.00,,,0.00,,2013-01-03 20:42:00,
2013-01-03 15:53:00,22.0,8.0,29.99,WSW,252,1.0,8.0,55,0.00,,,0.00,,2013-01-03 20:53:00,
2013-01-03 16:02:00,22.0,8.0,29.99,WSW,252,0.0,8.0,55,0.00,,,0.00,,2013-01-03 21:02:00,
2013-01-03 16:12:00,22.0,8.0,29.99,WSW,252,0.0,8.0,55,0.00,,,0.00,,2013-01-03 21:12:00,
2013-01-03 16:23:00,22.0,9.0,29.99,WSW,252,0.0,8.0,56,0.00,,,0.00,,2013-01-03 21:23:00,
2013-01-03 16:36:00,21.0,9.0,30.00,WSW,240,1.0,5.0,60,0.00,,,0.00,,2013-01-03 21:36:00,
2013-01-03 16:49:00,21.0,9.0,30.00,WSW,240,1.0,5.0,60,0.00,,,0.00,,2013-01-03 21:49:00,
2013-01-03 17:03:00,20.0,9.0,30.00,West,265,0.0,5.0,62,0.00,,,0.00,,2013-01-03 22:03:00,
2013-01-03 17:12:00,20.0,9.0,30.00,West,265,0.0,5.0,62,0.00,,,0.00,,2013-01-03 22:12:00,
2013-01-03 17:22:00,20.0,9.0,30.00,SW,225,0.0,5.0,63,0.00,,,0.00,,2013-01-03 22:22:00,
2013-01-03 17:33:00,20.0,10.0,30.00,WSW,257,0.0,3.0,64,0.00,,,0.00,,2013-01-03 22:33:00,
2013-01-03 17:42:00,20.0,10.0,30.00,WSW,257,0.0,3.0,64,0.00,,,0.00,,2013-01-03 22:42:00,
2013-01-03 17:53:00,19.0,9.0,30.00,WSW,248,0.0,4.0,65,0.00,,,0.00,,2013-01-03 22:53:00,
2013-01-03 18:03:00,19.0,10.0,30.01,WSW,248,0.0,4.0,66,0.00,,,0.00,,2013-01-03 23:03:00,
2013-01-03 18:12:00,19.0,10.0,30.01,WSW,248,0.0,4.0,66,0.00,,,0.00,,2013-01-03 23:12:00,
2013-01-03 18:23:00,18.0,9.0,30.01,SW,234,0.0,4.0,66,0.00,,,0.00,,2013-01-03 23:23:00,
2013-01-03 18:33:00,18.0,9.0,30.01,SW,234,1.0,1.0,66,0.00,,,0.00,,2013-01-03 23:33:00,
2013-01-03 18:43:00,18.0,9.0,30.01,SW,234,1.0,1.0,66,0.00,,,0.00,,2013-01-03 23:43:00,
2013-01-03 18:53:00,17.0,8.0,30.01,SW,234,0.0,1.0,68,0.00,,,0.00,,2013-01-03 23:53:00,
2013-01-03 19:03:00,16.0,8.0,30.01,SW,234,0.0,1.0,69,0.00,,,0.00,,2013-01-04 00:03:00,
2013-01-03 19:13:00,16.0,8.0,30.01,SW,234,0.0,1.0,69,0.00,,,0.00,,2013-01-04 00:13:00,
2013-01-03 19:22:00,16.0,8.0,30.01,SW,234,0.0,1.0,70,0.00,,,0.00,,2013-01-04 00:22:00,
2013-01-03 19:32:00,16.0,8.0,30.02,SW,234,0.0,1.0,71,0.00,,,0.00,,2013-01-04 00:32:00,
2013-01-03 19:42:00,16.0,8.0,30.02,SW,234,0.0,1.0,71,0.00,,,0.00,,2013-01-04 00:42:00,
2013-01-03 19:53:00,15.0,7.0,30.01,SW,234,0.0,1.0,71,0.00,,,0.00,,2013-01-04 00:53:00,
2013-01-03 20:02:00,15.0,8.0,30.01,SW,234,0.0,1.0,72,0.00,,,0.00,,2013-01-04 01:02:00,
2013-01-03 20:12:00,15.0,8.0,30.01,SW,234,0.0,1.0,72,0.00,,,0.00,,2013-01-04 01:12:00,
2013-01-03 20:22:00,15.0,8.0,30.01,SW,234,0.0,1.0,72,0.00,,,0.00,,2013-01-04 01:22:00,
2013-01-03 20:33:00,15.0,8.0,30.01,SW,234,0.0,0.0,72,0.00,,,0.00,,2013-01-04 01:33:00,
2013-01-03 20:42:00,15.0,8.0,30.01,SW,234,0.0,0.0,72,0.00,,,0.00,,2013-01-04 01:42:00,
2013-01-03 20:53:00,13.0,6.0,30.01,SW,234,0.0,0.0,73,0.00,,,0.00,,2013-01-04 01:53:00,
2013-01-03 21:02:00,13.0,6.0,30.01,SW,234,0.0,1.0,74,0.00,,,0.00,,2013-01-04 02:02:00,
2013-01-03 21:12:00,13.0,6.0,30.01,SW,234,0.0,1.0,74,0.00,,,0.00,,2013-01-04 02:12:00,
2013-01-03 21:22:00,13.0,7.0,30.00,SW,234,0.0,1.0,75,0.00,,,0.00,,2013-01-04 02:22:00,
2013-01-03 21:32:00,13.0,7.0,30.01,SW,234,0.0,0.0,75,0.00,,,0.00,,2013-01-04 02:32:00,
2013-01-03 21:42:00,13.0,7.0,30.01,SW,234,0.0,0.0,75,0.00,,,0.00,,2013-01-04 02:42:00,
2013-01-03 21:53:00,12.0,6.0,30.01,SW,234,0.0,0.0,77,0.00,,,0.00,,2013-01-04 02:53:00,
2013-01-03 22:03:00,12.0,6.0,30.01,SW,234,0.0,0.0,78,0.00,,,0.00,,2013-01-04 03:03:00,
2013-01-03 22:12:00,12.0,6.0,30.01,SW,234,0.0,0.0,78,0.00,,,0.00,,2013-01-04 03:12:00,
2013-01-03 22:22:00,14.0,9.0,30.00,NNW,333,0.0,2.0,80,0.00,,,0.00,,2013-01-04 03:22:00,
2013-01-03 22:32:00,15.0,10.0,30.00,West,262,0.0,1.0,79,0.00,,,0.00,,2013-01-04 03:32:00,
2013-01-03 22:42:00,15.0,10.0,30.00,West,262,0.0,1.0,79,0.00,,,0.00,,2013-01-04 03:42:00,
2013-01-03 22:53:00,17.0,11.0,30.00,SSW,194,0.0,2.0,77,0.00,,,0.00,,2013-01-04 03:53:00,
2013-01-03 23:02:00,17.0,11.0,29.99,WSW,238,0.0,2.0,76,0.00,,,0.00,,2013-01-04 04:02:00,
2013-01-03 23:12:00,17.0,11.0,29.99,WSW,238,0.0,2.0,76,0.00,,,0.00,,2013-01-04 04:12:00,
2013-01-03 23:22:00,18.0,11.0,29.99,SSW,211,0.0,2.0,75,0.00,,,0.00,,2013-01-04 04:22:00,
2013-01-03 23:32:00,18.0,11.0,29.98,West,261,0.0,2.0,75,0.00,,,0.00,,2013-01-04 04:32:00,
2013-01-03 23:42:00,18.0,11.0,29.98,West,261,0.0,2.0,75,0.00,,,0.00,,2013-01-04 04:42:00,
2013-01-03 23:53:00,18.0,11.0,29.98,SW,231,0.0,3.0,75,0.00,,,0.00,,2013-01-04 04:53:00,